Location: Lac de la Montagne noire
(46.1952°N, 74.2701°W)
Time: 12:16:02
(UTC-04:00)

OTV 5 (USA 277) - Visible Passes

Search period start: 22 October 2019 00:00
Search period end: 01 November 2019 00:00
Orbit: 310 x 324 km, 54.5° (Epoch: 17 October)

Date Brightness Start Highest point End Pass type
(mag) Time Alt. Az. Time Alt. Az. Time Alt. Az.
28 Oct ? 19:09:42 10° S 19:11:24 20° SSE 19:11:24 20° SSE visible
29 Oct ? 19:23:35 10° SW 19:25:53 47° S 19:25:53 47° S visible
30 Oct ? 19:38:05 10° WSW 19:40:14 46° W 19:40:14 46° W visible
31 Oct ? 18:18:39 10° SSW 18:21:07 32° SE 18:23:36 10° ENE visible
31 Oct ? 19:52:57 10° W 19:54:30 23° WNW 19:54:30 23° WNW visible
